| time (UTC) | temp F | wind direction | speed MPH | gust MPH | rain 1hr in | rain 24hr in | rain mn in | humidity % | barometer mb |
| 20260506051202 | 67 | 325 | 6.0 | 6.0 | 0.00 | 0.00 | 0.00 | 78 | 1008.7 |
| 20260506050701 | 67 | 33 | 1.0 | 6.0 | 0.00 | 0.00 | 0.00 | 78 | 1009.0 |
| 20260506050157 | 67 | 328 | 3.0 | 9.0 | 0.00 | 0.00 | 0.00 | 77 | 1008.8 |
| 20260506044649 | 69 | 327 | 3.0 | 5.0 | 0.00 | 0.00 | 0.00 | 78 | 1008.5 |
| 20260506044145 | 69 | 337 | 4.0 | 6.0 | 0.00 | 0.00 | 0.00 | 78 | 1008.5 |
| 20260506043643 | 69 | 328 | 2.0 | 6.0 | 0.00 | 0.00 | 0.00 | 78 | 1008.5 |
| 20260506043140 | 69 | 349 | 4.0 | 4.0 | 0.00 | 0.00 | 0.00 | 77 | 1008.2 |
| 20260506042639 | 69 | 308 | 5.0 | 7.0 | 0.00 | 0.00 | 0.00 | 77 | 1008.2 |
| 20260506042137 | 70 | 310 | 3.0 | 7.0 | 0.00 | 0.00 | 0.00 | 77 | 1008.3 |
| 20260506041635 | 70 | 290 | 3.0 | 10.0 | 0.00 | 0.00 | 0.00 | 77 | 1008.2 |
| 20260506041131 | 70 | 301 | 3.0 | 7.0 | 0.00 | 0.00 | 0.00 | 77 | 1008.1 |
| 20260506040629 | 71 | 307 | 4.0 | 11.0 | 0.00 | 0.00 | 0.00 | 76 | 1008.3 |
| 20260506040126 | 71 | 301 | 4.0 | 11.0 | 0.00 | 0.00 | 0.00 | 77 | 1008.2 |
| 20260506035623 | 71 | 359 | 4.0 | 7.0 | 0.00 | 0.00 | 0.00 | 76 | 1008.1 |
| 20260506035119 | 71 | 317 | 6.0 | 9.0 | 0.00 | 0.00 | 0.00 | 77 | 1007.8 |
| 20260506034617 | 71 | 304 | 2.0 | 5.0 | 0.00 | 0.00 | 0.00 | 77 | 1007.8 |
| 20260506034113 | 72 | 316 | 4.0 | 8.0 | 0.00 | 0.00 | 0.00 | 76 | 1007.7 |
| 20260506033611 | 72 | 330 | 3.0 | 7.0 | 0.00 | 0.00 | 0.00 | 76 | 1008.0 |
| 20260506033108 | 73 | 333 | 6.0 | 6.0 | 0.00 | 0.00 | 0.00 | 76 | 1007.6 |
| 20260506032605 | 74 | 290 | 4.0 | 6.0 | 0.00 | 0.00 | 0.00 | 75 | 1007.7 |
| 20260506032102 | 74 | 327 | 5.0 | 10.0 | 0.00 | 0.00 | 0.00 | 75 | 1007.7 |
| 20260506031559 | 74 | 301 | 4.0 | 11.0 | 0.00 | 0.00 | 0.00 | 74 | 1007.6 |
| 20260506031056 | 74 | 291 | 2.0 | 8.0 | 0.00 | 0.00 | 0.00 | 74 | 1007.3 |
| 20260506030554 | 75 | 331 | 4.0 | 9.0 | 0.00 | 0.00 | 0.00 | 74 | 1007.1 |
| 20260506030051 | 75 | 314 | 4.0 | 7.0 | 0.00 | 0.00 | 0.00 | 75 | 1006.8 |
| 20260506025548 | 75 | 328 | 5.0 | 6.0 | 0.00 | 0.00 | 0.00 | 74 | 1006.9 |
| 20260506025044 | 75 | 308 | 5.0 | 6.0 | 0.00 | 0.00 | 0.00 | 75 | 1006.7 |
| 20260506024541 | 75 | 298 | 3.0 | 4.0 | 0.00 | 0.00 | 0.00 | 74 | 1006.2 |
| 20260506024038 | 75 | 328 | 1.0 | 6.0 | 0.00 | 0.00 | 0.00 | 74 | 1006.4 |
| 20260506023534 | 76 | 317 | 3.0 | 5.0 | 0.00 | 0.00 | 0.00 | 74 | 1006.2 |
| 20260506023032 | 76 | 301 | 5.0 | 7.0 | 0.00 | 0.00 | 0.00 | 73 | 1005.9 |
| 20260506022529 | 77 | 343 | 4.0 | 10.0 | 0.00 | 0.00 | 0.00 | 72 | 1005.9 |
| 20260506022026 | 80 | 288 | 5.0 | 5.0 | 0.00 | 0.00 | 0.00 | 77 | 1005.8 |
| 20260506021523 | 80 | 257 | 4.0 | 6.0 | 0.00 | 0.00 | 0.00 | 77 | 1005.9 |
| 20260506021021 | 80 | 148 | 2.0 | 3.0 | 0.00 | 0.00 | 0.00 | 77 | 1005.2 |
| 20260506020518 | 80 | 130 | 2.0 | 3.0 | 0.00 | 0.00 | 0.00 | 76 | 1005.6 |
| 20260506020016 | 80 | 265 | 4.0 | 5.0 | 0.00 | 0.00 | 0.00 | 76 | 1005.9 |
| 20260506015513 | 80 | 219 | 2.0 | 5.0 | 0.00 | 0.00 | 0.00 | 76 | 1005.7 |
| 20260506015009 | 80 | 261 | 2.0 | 6.0 | 0.00 | 0.00 | 0.00 | 76 | 1005.5 |
| 20260506014507 | 80 | 150 | 2.0 | 4.0 | 0.00 | 0.00 | 0.00 | 76 | 1005.3 |
| 20260506014003 | 80 | 221 | 2.0 | 4.0 | 0.00 | 0.00 | 0.00 | 76 | 1005.5 |
| 20260506013501 | 80 | 264 | 2.0 | 5.0 | 0.00 | 0.00 | 0.00 | 76 | 1005.6 |
| 20260506012957 | 80 | 179 | 2.0 | 4.0 | 0.00 | 0.00 | 0.00 | 76 | 1005.6 |
| 20260506012453 | 80 | 225 | 3.0 | 6.0 | 0.00 | 0.00 | 0.00 | 76 | 1005.2 |
| 20260506011951 | 80 | 219 | 4.0 | 8.0 | 0.00 | 0.00 | 0.00 | 77 | 1004.7 |
| 20260506011448 | 80 | 141 | 6.0 | 10.0 | 0.00 | 0.00 | 0.00 | 77 | 1004.4 |
| 20260506010944 | 80 | 174 | 3.0 | 5.0 | 0.00 | 0.00 | 0.00 | 76 | 1005.0 |
| 20260506010443 | 80 | 146 | 6.0 | 6.0 | 0.00 | 0.00 | 0.00 | 76 | 1005.0 |
| 20260506005939 | 80 | 184 | 4.0 | 7.0 | 0.00 | 0.00 | 0.00 | 76 | 1005.1 |
| 20260506005437 | 80 | 174 | 8.0 | 9.0 | 0.00 | 0.00 | 0.00 | 76 | 1005.0 |
| 20260506004932 | 80 | 168 | 5.0 | 8.0 | 0.00 | 0.00 | 0.00 | 76 | 1004.9 |
| 20260506004431 | 80 | 150 | 9.0 | 10.0 | 0.00 | 0.00 | 0.00 | 75 | 1004.7 |
| 20260506003926 | 80 | 150 | 7.0 | 9.0 | 0.00 | 0.00 | 0.00 | 75 | 1004.7 |
| 20260506003423 | 80 | 152 | 8.0 | 10.0 | 0.00 | 0.00 | 0.00 | 75 | 1004.7 |
| 20260506002919 | 81 | 153 | 6.0 | 9.0 | 0.00 | 0.00 | 0.00 | 75 | 1004.6 |
| 20260506002415 | 81 | 152 | 7.0 | 15.0 | 0.00 | 0.00 | 0.00 | 75 | 1004.6 |
| 20260506001911 | 81 | 150 | 10.0 | 13.0 | 0.00 | 0.00 | 0.00 | 74 | 1004.7 |
| 20260506001408 | 81 | 167 | 15.0 | 15.0 | 0.00 | 0.00 | 0.00 | 74 | 1004.4 |
| 20260506000905 | 81 | 150 | 10.0 | 15.0 | 0.00 | 0.00 | 0.00 | 74 | 1004.3 |
| 20260506000403 | 81 | 182 | 10.0 | 19.0 | 0.00 | 0.00 | 0.00 | 74 | 1004.3 |
| 20260505235859 | 81 | 151 | 13.0 | 16.0 | 0.00 | 0.00 | 0.00 | 74 | 1004.0 |
| 20260505235358 | 82 | 153 | 12.0 | 16.0 | 0.00 | 0.00 | 0.00 | 73 | 1004.1 |
| 20260505234854 | 82 | 159 | 9.0 | 12.0 | 0.00 | 0.00 | 0.00 | 72 | 1004.4 |
| 20260505234352 | 82 | 144 | 7.0 | 13.0 | 0.00 | 0.00 | 0.00 | 73 | 1004.5 |
| 20260505233848 | 82 | 177 | 10.0 | 13.0 | 0.00 | 0.00 | 0.00 | 72 | 1004.4 |
| 20260505233346 | 83 | 159 | 6.0 | 16.0 | 0.00 | 0.00 | 0.00 | 72 | 1004.2 |
| 20260505232843 | 83 | 191 | 6.0 | 12.0 | 0.00 | 0.00 | 0.00 | 71 | 1004.2 |
| 20260505232341 | 83 | 161 | 8.0 | 13.0 | 0.00 | 0.00 | 0.00 | 71 | 1004.2 |
| 20260505231837 | 84 | 165 | 7.0 | 10.0 | 0.00 | 0.00 | 0.00 | 70 | 1004.3 |
| 20260505231335 | 83 | 180 | 10.0 | 18.0 | 0.00 | 0.00 | 0.00 | 70 | 1004.2 |
| 20260505230833 | 84 | 165 | 9.0 | 19.0 | 0.00 | 0.00 | 0.00 | 70 | 1004.1 |
| 20260505230330 | 84 | 144 | 9.0 | 15.0 | 0.00 | 0.00 | 0.00 | 70 | 1003.7 |
| 20260505225827 | 84 | 166 | 10.0 | 13.0 | 0.00 | 0.00 | 0.00 | 69 | 1003.9 |
| 20260505225324 | 85 | 172 | 4.0 | 18.0 | 0.00 | 0.00 | 0.00 | 68 | 1004.0 |
| 20260505224819 | 85 | 163 | 10.0 | 18.0 | 0.00 | 0.00 | 0.00 | 69 | 1004.0 |
| 20260505224317 | 86 | 155 | 9.0 | 13.0 | 0.00 | 0.00 | 0.00 | 69 | 1003.7 |
| 20260505223814 | 85 | 162 | 9.0 | 17.0 | 0.00 | 0.00 | 0.00 | 69 | 1004.1 |
| 20260505223311 | 85 | 159 | 11.0 | 16.0 | 0.00 | 0.00 | 0.00 | 67 | 1004.0 |
| 20260505222807 | 86 | 150 | 9.0 | 13.0 | 0.00 | 0.00 | 0.00 | 67 | 1003.9 |
| 20260505222305 | 86 | 153 | 12.0 | 18.0 | 0.00 | 0.00 | 0.00 | 67 | 1003.8 |
| 20260505221800 | 86 | 173 | 9.0 | 13.0 | 0.00 | 0.00 | 0.00 | 67 | 1003.8 |
| 20260505221257 | 86 | 198 | 6.0 | 12.0 | 0.00 | 0.00 | 0.00 | 66 | 1003.8 |
| 20260505220754 | 85 | 183 | 6.0 | 15.0 | 0.00 | 0.00 | 0.00 | 67 | 1003.7 |
| 20260505220251 | 86 | 188 | 7.0 | 14.0 | 0.00 | 0.00 | 0.00 | 66 | 1003.7 |
| 20260505215749 | 86 | 158 | 9.0 | 16.0 | 0.00 | 0.00 | 0.00 | 68 | 1003.7 |
| 20260505215247 | 85 | 157 | 5.0 | 16.0 | 0.00 | 0.00 | 0.00 | 68 | 1003.8 |
| 20260505214744 | 85 | 177 | 6.0 | 15.0 | 0.00 | 0.00 | 0.00 | 67 | 1003.9 |
| 20260505214241 | 85 | 160 | 11.0 | 14.0 | 0.00 | 0.00 | 0.00 | 68 | 1003.8 |
| 20260505213738 | 85 | 164 | 6.0 | 13.0 | 0.00 | 0.00 | 0.00 | 67 | 1003.9 |
| 20260505213236 | 85 | 157 | 13.0 | 14.0 | 0.00 | 0.00 | 0.00 | 67 | 1004.1 |
| 20260505212732 | 84 | 164 | 9.0 | 15.0 | 0.00 | 0.00 | 0.00 | 68 | 1004.1 |
| 20260505212229 | 85 | 219 | 8.0 | 15.0 | 0.00 | 0.00 | 0.00 | 67 | 1004.2 |
| 20260505211726 | 86 | 169 | 7.0 | 17.0 | 0.00 | 0.00 | 0.00 | 66 | 1004.4 |
| 20260505211224 | 86 | 186 | 8.0 | 13.0 | 0.00 | 0.00 | 0.00 | 66 | 1004.2 |
| 20260505210720 | 85 | 183 | 7.0 | 16.0 | 0.00 | 0.00 | 0.00 | 67 | 1004.2 |
| 20260505210216 | 84 | 150 | 13.0 | 17.0 | 0.00 | 0.00 | 0.00 | 68 | 1004.3 |
| 20260505205714 | 86 | 145 | 10.0 | 15.0 | 0.00 | 0.00 | 0.00 | 66 | 1004.4 |
| 20260505205212 | 85 | 145 | 12.0 | 19.0 | 0.00 | 0.00 | 0.00 | 67 | 1004.5 |
| 20260505204708 | 85 | 169 | 6.0 | 12.0 | 0.00 | 0.00 | 0.00 | 67 | 1004.6 |
| 20260505204206 | 85 | 157 | 10.0 | 15.0 | 0.00 | 0.00 | 0.00 | 67 | 1004.6 |
| 20260505203704 | 85 | 144 | 17.0 | 19.0 | 0.00 | 0.00 | 0.00 | 67 | 1004.6 |
| 20260505203200 | 85 | 155 | 11.0 | 20.0 | 0.00 | 0.00 | 0.00 | 67 | 1004.6 |
| 20260505202656 | 85 | 206 | 5.0 | 14.0 | 0.00 | 0.00 | 0.00 | 66 | 1004.8 |
| 20260505202152 | 85 | 126 | 10.0 | 15.0 | 0.00 | 0.00 | 0.00 | 67 | 1004.6 |
| 20260505201648 | 85 | 196 | 6.0 | 12.0 | 0.00 | 0.00 | 0.00 | 67 | 1004.7 |
| 20260505201147 | 84 | 173 | 13.0 | 16.0 | 0.00 | 0.00 | 0.00 | 69 | 1004.7 |
| 20260505200645 | 84 | 172 | 9.0 | 17.0 | 0.00 | 0.00 | 0.00 | 69 | 1004.9 |
| 20260505200141 | 84 | 151 | 14.0 | 16.0 | 0.00 | 0.00 | 0.00 | 68 | 1004.9 |
| 20260505195637 | 84 | 162 | 14.0 | 19.0 | 0.00 | 0.00 | 0.00 | 68 | 1004.8 |
| 20260505195134 | 83 | 153 | 15.0 | 21.0 | 0.00 | 0.00 | 0.00 | 70 | 1004.9 |
| 20260505194632 | 83 | 165 | 9.0 | 17.0 | 0.00 | 0.00 | 0.00 | 69 | 1004.9 |
| 20260505194127 | 82 | 177 | 9.0 | 20.0 | 0.00 | 0.00 | 0.00 | 70 | 1004.7 |
| 20260505193624 | 82 | 167 | 12.0 | 19.0 | 0.00 | 0.00 | 0.00 | 70 | 1004.7 |
| 20260505193121 | 82 | 164 | 14.0 | 21.0 | 0.00 | 0.00 | 0.00 | 70 | 1004.7 |
| 20260505192620 | 83 | 143 | 9.0 | 14.0 | 0.00 | 0.00 | 0.00 | 69 | 1004.8 |
| 20260505192117 | 82 | 160 | 9.0 | 18.0 | 0.00 | 0.00 | 0.00 | 70 | 1004.9 |
| 20260505191616 | 82 | 170 | 12.0 | 21.0 | 0.00 | 0.00 | 0.00 | 71 | 1005.0 |
| 20260505191113 | 82 | 157 | 12.0 | 16.0 | 0.00 | 0.00 | 0.00 | 71 | 1004.9 |
| 20260505190608 | 81 | 205 | 12.0 | 20.0 | 0.00 | 0.00 | 0.00 | 70 | 1005.4 |
| 20260505190104 | 81 | 152 | 7.0 | 18.0 | 0.00 | 0.00 | 0.00 | 71 | 1005.2 |
| 20260505185601 | 81 | 161 | 11.0 | 21.0 | 0.00 | 0.00 | 0.00 | 71 | 1005.2 |
| 20260505185057 | 81 | 161 | 13.0 | 21.0 | 0.00 | 0.00 | 0.00 | 71 | 1005.2 |
| 20260505184554 | 82 | 169 | 8.0 | 17.0 | 0.00 | 0.00 | 0.00 | 70 | 1005.2 |
| 20260505184051 | 81 | 145 | 9.0 | 15.0 | 0.00 | 0.00 | 0.00 | 72 | 1005.5 |
| 20260505183547 | 81 | 151 | 11.0 | 20.0 | 0.00 | 0.00 | 0.00 | 72 | 1005.4 |
| 20260505183045 | 81 | 233 | 9.0 | 17.0 | 0.00 | 0.00 | 0.00 | 70 | 1005.6 |
| 20260505182541 | 82 | 200 | 9.0 | 12.0 | 0.00 | 0.00 | 0.00 | 70 | 1005.5 |
| 20260505182038 | 80 | 163 | 14.0 | 20.0 | 0.00 | 0.00 | 0.00 | 72 | 1005.4 |
| 20260505181535 | 80 | 180 | 7.0 | 15.0 | 0.00 | 0.00 | 0.00 | 73 | 1005.5 |
| 20260505181032 | 80 | 149 | 11.0 | 19.0 | 0.00 | 0.00 | 0.00 | 73 | 1005.5 |
| 20260505180527 | 80 | 228 | 5.0 | 16.0 | 0.00 | 0.00 | 0.00 | 72 | 1005.5 |
| 20260505180026 | 80 | 162 | 9.0 | 20.0 | 0.00 | 0.00 | 0.00 | 72 | 1005.4 |
| 20260505175526 | 79 | 150 | 13.0 | 21.0 | 0.00 | 0.00 | 0.00 | 73 | 1005.6 |
| 20260505175023 | 80 | 146 | 15.0 | 21.0 | 0.00 | 0.00 | 0.00 | 73 | 1005.6 |
| 20260505174520 | 80 | 165 | 11.0 | 15.0 | 0.00 | 0.00 | 0.00 | 72 | 1005.5 |
| 20260505174016 | 79 | 162 | 9.0 | 19.0 | 0.00 | 0.00 | 0.00 | 73 | 1005.4 |
| 20260505173513 | 79 | 169 | 15.0 | 21.0 | 0.00 | 0.00 | 0.00 | 73 | 1005.3 |
| 20260505173010 | 79 | 169 | 11.0 | 19.0 | 0.00 | 0.00 | 0.00 | 72 | 1005.5 |
| 20260505172508 | 79 | 155 | 14.0 | 20.0 | 0.00 | 0.00 | 0.00 | 73 | 1005.5 |
| 20260505172003 | 80 | 161 | 11.0 | 21.0 | 0.00 | 0.00 | 0.00 | 72 | 1005.3 |
| 20260505171459 | 79 | 160 | 14.0 | 20.0 | 0.00 | 0.00 | 0.00 | 73 | 1005.5 |
| 20260505170955 | 79 | 186 | 10.0 | 19.0 | 0.00 | 0.00 | 0.00 | 73 | 1005.3 |
| 20260505170452 | 79 | 148 | 14.0 | 23.0 | 0.00 | 0.00 | 0.00 | 73 | 1005.6 |
| 20260505165948 | 79 | 156 | 13.0 | 18.0 | 0.00 | 0.00 | 0.00 | 73 | 1005.6 |
| 20260505165444 | 79 | 189 | 11.0 | 19.0 | 0.00 | 0.00 | 0.00 | 73 | 1005.5 |
| 20260505164939 | 79 | 197 | 12.0 | 24.0 | 0.00 | 0.00 | 0.00 | 74 | 1005.6 |
| 20260505164436 | 78 | 175 | 19.0 | 22.0 | 0.00 | 0.00 | 0.00 | 74 | 1005.4 |
| 20260505163934 | 78 | 154 | 15.0 | 20.0 | 0.00 | 0.00 | 0.00 | 74 | 1005.5 |
| 20260505163433 | 78 | 174 | 16.0 | 21.0 | 0.00 | 0.00 | 0.00 | 75 | 1005.4 |
| 20260505162932 | 78 | 181 | 11.0 | 23.0 | 0.00 | 0.00 | 0.00 | 75 | 1005.6 |
| 20260505162427 | 78 | 154 | 11.0 | 21.0 | 0.00 | 0.00 | 0.00 | 75 | 1005.3 |
| 20260505161924 | 77 | 161 | 15.0 | 23.0 | 0.00 | 0.00 | 0.00 | 75 | 1005.4 |
| 20260505161421 | 78 | 163 | 11.0 | 22.0 | 0.00 | 0.00 | 0.00 | 75 | 1005.4 |
| 20260505160918 | 77 | 167 | 11.0 | 23.0 | 0.00 | 0.00 | 0.00 | 76 | 1005.4 |
| 20260505160416 | 77 | 162 | 13.0 | 26.0 | 0.00 | 0.00 | 0.00 | 77 | 1005.2 |
| 20260505153355 | 75 | 146 | 12.0 | 24.0 | 0.00 | 0.00 | 0.00 | 79 | 1005.6 |
| 20260505152852 | 75 | 145 | 10.0 | 17.0 | 0.00 | 0.00 | 0.00 | 78 | 1005.6 |
| 20260505152350 | 75 | 217 | 8.0 | 16.0 | 0.00 | 0.00 | 0.00 | 79 | 1005.6 |
| 20260505151849 | 75 | 145 | 11.0 | 21.0 | 0.00 | 0.00 | 0.00 | 80 | 1005.5 |
| 20260505151346 | 75 | 182 | 6.0 | 18.0 | 0.00 | 0.00 | 0.00 | 80 | 1005.5 |
| 20260505150843 | 75 | 151 | 18.0 | 19.0 | 0.00 | 0.00 | 0.00 | 80 | 1005.4 |
| 20260505150340 | 74 | 151 | 15.0 | 25.0 | 0.00 | 0.00 | 0.00 | 80 | 1005.5 |
| 20260505140304 | 73 | 174 | 11.0 | 18.0 | 0.00 | 0.00 | 0.00 | 83 | 1005.6 |
| 20260505130228 | 71 | 165 | 12.0 | 15.0 | 0.00 | 0.00 | 0.00 | 85 | 1005.2 |
| 20260505124718 | 71 | 137 | 10.0 | 13.0 | 0.00 | 0.00 | 0.00 | 85 | 1005.3 |
| 20260505124215 | 71 | 146 | 11.0 | 14.0 | 0.00 | 0.00 | 0.00 | 85 | 1004.9 |
| 20260505123711 | 71 | 160 | 10.0 | 15.0 | 0.00 | 0.00 | 0.00 | 85 | 1004.6 |
| 20260505123208 | 71 | 156 | 8.0 | 17.0 | 0.00 | 0.00 | 0.00 | 85 | 1004.7 |
| 20260505122704 | 71 | 176 | 10.0 | 15.0 | 0.00 | 0.00 | 0.00 | 85 | 1004.7 |
| 20260505122201 | 71 | 172 | 6.0 | 25.0 | 0.00 | 0.00 | 0.00 | 85 | 1004.8 |
| 20260505121658 | 71 | 147 | 10.0 | 17.0 | 0.00 | 0.00 | 0.00 | 85 | 1004.6 |
| 20260505121154 | 71 | 150 | 11.0 | 19.0 | 0.00 | 0.00 | 0.00 | 85 | 1004.7 |
| 20260505120651 | 71 | 163 | 9.0 | 19.0 | 0.00 | 0.00 | 0.00 | 85 | 1004.4 |
| 20260505120147 | 71 | 137 | 14.0 | 16.0 | 0.00 | 0.00 | 0.00 | 85 | 1004.6 |
| 20260505115641 | 71 | 159 | 11.0 | 20.0 | 0.00 | 0.00 | 0.00 | 85 | 1004.5 |
| 20260505115139 | 71 | 169 | 12.0 | 15.0 | 0.00 | 0.00 | 0.00 | 85 | 1004.6 |
| 20260505114636 | 71 | 161 | 12.0 | 17.0 | 0.00 | 0.00 | 0.00 | 85 | 1004.6 |
| 20260505114132 | 71 | 163 | 10.0 | 19.0 | 0.00 | 0.00 | 0.00 | 86 | 1004.7 |
| 20260505113628 | 71 | 162 | 8.0 | 17.0 | 0.00 | 0.00 | 0.00 | 86 | 1004.3 |
| 20260505113125 | 71 | 155 | 11.0 | 12.0 | 0.00 | 0.00 | 0.00 | 86 | 1004.4 |
| 20260505112621 | 71 | 137 | 16.0 | 19.0 | 0.00 | 0.00 | 0.00 | 86 | 1004.5 |
| 20260505112120 | 71 | 164 | 12.0 | 16.0 | 0.00 | 0.00 | 0.00 | 86 | 1004.7 |
| 20260505111619 | 71 | 167 | 11.0 | 15.0 | 0.00 | 0.00 | 0.00 | 86 | 1004.8 |
| 20260505111115 | 71 | 146 | 17.0 | 20.0 | 0.00 | 0.00 | 0.00 | 85 | 1004.5 |
| 20260505110612 | 71 | 152 | 11.0 | 14.0 | 0.00 | 0.00 | 0.00 | 85 | 1004.5 |
| 20260505110109 | 71 | 137 | 8.0 | 15.0 | 0.00 | 0.00 | 0.00 | 85 | 1004.5 |
| 20260505102044 | 71 | 163 | 8.0 | 17.0 | 0.00 | 0.00 | 0.00 | 85 | 1004.6 |
| 20260505101543 | 71 | 151 | 14.0 | 17.0 | 0.00 | 0.00 | 0.00 | 84 | 1004.6 |
| 20260505101039 | 71 | 163 | 11.0 | 15.0 | 0.00 | 0.00 | 0.00 | 84 | 1004.7 |
| 20260505100536 | 71 | 148 | 18.0 | 22.0 | 0.00 | 0.00 | 0.00 | 84 | 1004.6 |
| 20260505100033 | 71 | 168 | 8.0 | 17.0 | 0.00 | 0.00 | 0.00 | 84 | 1004.9 |
| 20260505095529 | 71 | 142 | 8.0 | 19.0 | 0.00 | 0.00 | 0.00 | 84 | 1004.9 |
| 20260505095025 | 71 | 194 | 6.0 | 14.0 | 0.00 | 0.00 | 0.00 | 84 | 1005.0 |
| 20260505094522 | 71 | 171 | 12.0 | 16.0 | 0.00 | 0.00 | 0.00 | 84 | 1005.1 |
| 20260505094018 | 71 | 160 | 13.0 | 15.0 | 0.00 | 0.00 | 0.00 | 84 | 1004.8 |
| 20260505093515 | 71 | 153 | 9.0 | 14.0 | 0.00 | 0.00 | 0.00 | 84 | 1005.0 |
| 20260505093012 | 71 | 178 | 9.0 | 15.0 | 0.00 | 0.00 | 0.00 | 84 | 1004.8 |
| 20260505092509 | 71 | 142 | 11.0 | 18.0 | 0.00 | 0.00 | 0.00 | 84 | 1005.1 |
| 20260505092008 | 71 | 165 | 7.0 | 18.0 | 0.00 | 0.00 | 0.00 | 84 | 1004.8 |
| 20260505091504 | 71 | 188 | 8.0 | 17.0 | 0.00 | 0.00 | 0.00 | 84 | 1004.7 |
| 20260505091002 | 71 | 190 | 9.0 | 16.0 | 0.00 | 0.00 | 0.00 | 84 | 1004.8 |
| 20260505090500 | 71 | 160 | 8.0 | 20.0 | 0.00 | 0.00 | 0.00 | 84 | 1004.6 |
| 20260505085957 | 71 | 147 | 15.0 | 17.0 | 0.00 | 0.00 | 0.00 | 84 | 1004.5 |
| 20260505085455 | 71 | 158 | 11.0 | 23.0 | 0.00 | 0.00 | 0.00 | 84 | 1004.6 |
| 20260505084953 | 71 | 173 | 11.0 | 20.0 | 0.00 | 0.00 | 0.00 | 84 | 1004.5 |
| 20260505084451 | 71 | 176 | 15.0 | 18.0 | 0.00 | 0.00 | 0.00 | 84 | 1004.9 |
| 20260505083949 | 71 | 139 | 6.0 | 20.0 | 0.00 | 0.00 | 0.00 | 84 | 1004.7 |
| 20260505083446 | 71 | 166 | 4.0 | 15.0 | 0.00 | 0.00 | 0.00 | 84 | 1004.9 |
| 20260505082942 | 71 | 155 | 12.0 | 17.0 | 0.00 | 0.00 | 0.00 | 84 | 1004.8 |
| 20260505082438 | 71 | 177 | 9.0 | 17.0 | 0.00 | 0.00 | 0.00 | 84 | 1005.0 |
| 20260505081935 | 71 | 166 | 12.0 | 21.0 | 0.00 | 0.00 | 0.00 | 84 | 1004.8 |
| 20260505081432 | 71 | 158 | 16.0 | 21.0 | 0.00 | 0.00 | 0.00 | 84 | 1005.0 |
| 20260505080928 | 71 | 152 | 11.0 | 15.0 | 0.00 | 0.00 | 0.00 | 84 | 1005.1 |
| 20260505080425 | 71 | 169 | 9.0 | 19.0 | 0.00 | 0.00 | 0.00 | 84 | 1005.1 |
| 20260505075920 | 71 | 151 | 9.0 | 19.0 | 0.00 | 0.00 | 0.00 | 84 | 1005.4 |
| 20260505075417 | 71 | 168 | 7.0 | 21.0 | 0.00 | 0.00 | 0.00 | 84 | 1005.2 |
| 20260505074915 | 71 | 135 | 12.0 | 19.0 | 0.00 | 0.00 | 0.00 | 84 | 1005.2 |
| 20260505074412 | 71 | 152 | 16.0 | 21.0 | 0.00 | 0.00 | 0.00 | 84 | 1005.4 |
| 20260505073909 | 71 | 170 | 8.0 | 15.0 | 0.00 | 0.00 | 0.00 | 84 | 1005.6 |
| 20260505073407 | 71 | 164 | 9.0 | 17.0 | 0.00 | 0.00 | 0.00 | 84 | 1005.5 |
| 20260505072904 | 71 | 152 | 9.0 | 17.0 | 0.00 | 0.00 | 0.00 | 84 | 1005.6 |
| 20260505072359 | 71 | 147 | 10.0 | 14.0 | 0.00 | 0.00 | 0.00 | 84 | 1005.7 |
| 20260505071856 | 71 | 170 | 7.0 | 19.0 | 0.00 | 0.00 | 0.00 | 84 | 1005.7 |
| 20260505071352 | 71 | 145 | 10.0 | 16.0 | 0.00 | 0.00 | 0.00 | 84 | 1005.8 |
| 20260505070850 | 71 | 153 | 6.0 | 19.0 | 0.00 | 0.00 | 0.00 | 83 | 1005.7 |
| 20260505070346 | 71 | 163 | 9.0 | 17.0 | 0.00 | 0.00 | 0.00 | 83 | 1005.8 |
| 20260505065842 | 71 | 143 | 6.0 | 12.0 | 0.00 | 0.00 | 0.00 | 83 | 1006.0 |
| 20260505065339 | 71 | 184 | 8.0 | 19.0 | 0.00 | 0.00 | 0.00 | 83 | 1006.1 |
| 20260505064836 | 71 | 168 | 8.0 | 15.0 | 0.00 | 0.00 | 0.00 | 83 | 1006.0 |
| 20260505064333 | 71 | 155 | 9.0 | 18.0 | 0.00 | 0.00 | 0.00 | 82 | 1005.9 |
| 20260505063831 | 71 | 148 | 11.0 | 18.0 | 0.00 | 0.00 | 0.00 | 82 | 1005.9 |
| 20260505063326 | 71 | 155 | 10.0 | 12.0 | 0.00 | 0.00 | 0.00 | 82 | 1006.0 |
| 20260505062823 | 71 | 170 | 11.0 | 17.0 | 0.00 | 0.00 | 0.00 | 82 | 1006.2 |
| 20260505062321 | 71 | 152 | 14.0 | 20.0 | 0.00 | 0.00 | 0.00 | 82 | 1006.1 |
| 20260505061818 | 71 | 170 | 8.0 | 18.0 | 0.00 | 0.00 | 0.00 | 81 | 1006.3 |
| 20260505061316 | 71 | 149 | 10.0 | 16.0 | 0.00 | 0.00 | 0.00 | 81 | 1006.3 |
| 20260505060813 | 71 | 170 | 9.0 | 20.0 | 0.00 | 0.00 | 0.00 | 81 | 1006.2 |
| 20260505060310 | 72 | 142 | 9.0 | 20.0 | 0.00 | 0.00 | 0.00 | 80 | 1006.3 |
| 20260505055805 | 72 | 150 | 9.0 | 22.0 | 0.00 | 0.00 | 0.00 | 80 | 1006.1 |
| 20260505055303 | 71 | 147 | 12.0 | 17.0 | 0.00 | 0.00 | 0.00 | 80 | 1006.3 |
| 20260505054759 | 71 | 132 | 13.0 | 18.0 | 0.00 | 0.00 | 0.00 | 80 | 1006.4 |